Theta_e
312 313 316 317 317 316 315 313 312 312 313 313 312 313 317 321 321 320 320 321 322 325 324 321 321 321 320 320 325 329 336 338 337 337 337 334 338 338 337 336 336 336 336 336 336
313 314 316 317 317 316 315 313 312 312 313 313 313 314 319 324 324 324 322 322 323 322 323 322 321 320 322 320 323 326 331 336 333 334 339 338 338 338 336 337 336 337 338 336 334
313 315 316 318 317 316 315 314 312 312 314 313 313 316 321 324 322 322 322 321 320 320 321 321 321 323 323 324 324 333 333 334 335 338 338 338 339 338 336 338 339 338 341 341 339
314 315 317 318 316 316 316 315 312 312 314 314 314 317 321 324 324 320 319 320 320 322 322 322 324 331 333 334 332 336 334 337 338 339 339 339 337 338 338 338 339 338 341 339 338
314 315 318 317 316 316 316 315 313 313 314 314 314 317 320 322 321 318 319 321 323 323 323 324 325 330 336 335 336 339 338 338 338 338 336 336 336 338 338 338 336 338 339 338 335
315 316 318 317 316 316 316 315 313 313 313 314 314 316 320 322 321 318 319 323 324 325 325 325 329 331 331 331 335 339 338 339 338 336 335 334 332 335 339 338 338 338 340 337 336
315 316 318 316 316 316 316 314 314 317 316 314 314 316 319 322 322 321 319 322 323 325 324 323 323 325 333 336 338 339 342 339 338 337 336 332 336 338 339 337 339 340 341 338 336
315 317 318 316 316 316 314 316 317 320 319 317 316 317 318 322 323 322 321 321 324 325 323 322 328 332 333 335 335 335 336 339 336 337 337 335 337 334 337 338 339 341 341 338 336
315 316 317 316 316 315 316 317 318 321 319 318 317 317 320 322 322 321 321 322 324 323 322 323 332 331 332 334 336 333 337 337 339 337 338 336 336 335 335 334 339 341 340 339 334
315 316 316 316 316 315 318 317 318 320 319 318 319 320 322 322 322 321 322 321 322 324 324 325 327 332 333 335 334 337 335 337 339 338 338 339 337 335 333 333 337 340 343 340 336
315 315 316 316 316 316 318 318 318 319 319 318 318 319 321 321 323 321 322 322 324 324 328 325 330 333 334 333 328 329 336 339 338 336 339 342 340 336 336 335 338 338 342 340 338
315 315 315 316 316 317 318 317 316 316 317 319 319 320 321 322 323 322 322 324 325 328 325 328 330 328 326 324 329 334 339 340 336 335 339 340 341 339 338 338 337 336 337 340 338
314 315 315 316 315 317 318 317 317 318 317 318 320 321 321 322 323 322 323 325 326 327 327 330 329 325 330 334 336 337 339 339 339 337 337 338 340 339 336 336 336 337 335 336 339
314 315 315 315 315 315 316 317 317 320 322 324 322 322 322 322 324 325 324 327 327 328 327 329 325 329 331 332 333 336 333 337 338 338 341 336 338 337 337 336 334 338 334 337 339
314 315 315 314 314 314 315 317 317 320 329 326 323 321 321 322 324 324 325 327 329 328 328 329 327 328 331 331 332 336 335 336 334 338 339 339 339 336 335 336 336 335 335 336 339
315 315 315 315 314 314 316 316 319 323 328 324 321 321 322 322 323 324 325 326 325 327 326 326 325 326 331 332 334 332 334 333 332 335 338 338 339 340 340 336 335 334 335 335 337
315 315 315 315 314 314 315 318 319 326 323 327 321 321 322 323 324 326 327 328 329 331 330 329 329 331 332 333 331 333 337 338 338 339 340 338 340 339 336 335 334 335 335 334 335
315 315 315 314 314 314 316 320 324 322 327 326 323 320 323 324 324 325 327 328 325 328 328 330 331 333 328 334 336 336 334 335 335 336 335 337 342 340 335 333 333 333 336 335 337
315 315 314 314 316 314 318 319 320 325 326 324 324 322 323 323 324 325 327 328 327 328 330 332 332 331 330 328 333 334 333 330 338 336 339 338 339 337 334 335 334 334 336 336 336
315 315 317 315 314 317 319 315 321 321 323 322 326 322 324 324 325 325 326 326 327 326 327 332 333 333 330 329 328 331 327 332 335 336 335 337 340 339 339 338 335 333 333 334 333
315 314 320 314 315 315 319 317 319 319 320 320 325 327 322 323 325 324 326 326 326 327 329 332 336 335 333 333 332 330 332 330 334 336 334 335 332 339 339 338 338 334 333 332 331
315 319 320 314 318 312 316 316 316 319 319 318 323 326 329 327 323 324 326 327 328 331 332 332 338 338 334 331 330 329 330 333 333 336 337 337 336 332 336 335 335 335 331 330 330
314 315 319 318 322 319 315 316 317 317 317 321 322 325 327 329 328 324 324 328 332 333 336 335 337 337 335 333 331 334 329 330 333 336 341 336 333 333 335 335 334 334 330 328 328
314 320 318 319 315 318 319 320 320 320 323 324 325 325 326 329 327 332 328 332 330 333 328 331 335 339 336 334 331 335 330 330 336 338 336 336 336 335 338 337 335 333 332 329 326
314 319 319 320 318 317 317 318 319 321 320 323 325 327 326 330 330 332 332 332 331 329 329 335 338 332 330 330 332 332 331 330 333 335 334 333 335 336 337 338 336 335 332 328 326
314 324 326 324 325 324 317 321 319 321 319 327 327 327 327 330 330 331 332 332 332 332 335 330 336 334 334 333 333 334 332 330 331 332 333 336 337 334 335 334 333 333 331 329 327
315 322 321 323 324 324 324 325 320 322 324 325 325 326 329 328 329 328 329 326 330 334 335 336 337 336 334 334 334 334 333 332 332 333 335 336 336 335 336 335 336 334 331 331 329
Wind_Speed
15 15 16 18 20 21 22 21 19 15 12 12 12 11 10 6 6 12 11 18 17 15 15 9 5 6 4 1 3 3 2 4 5 7 5 4 7 8 8 17 14 12 16 10 10
14 15 16 19 21 21 22 22 20 15 12 12 12 10 10 10 14 14 18 17 17 12 7 3 4 4 3 3 3 3 1 3 0 7 6 8 11 8 8 17 18 20 17 13 10
14 14 16 20 22 22 22 22 20 15 11 11 10 8 6 10 14 9 14 14 11 8 4 2 3 6 5 3 3 4 3 7 6 14 11 13 6 5 17 8 14 14 15 12 11
14 16 18 20 21 22 21 22 19 15 11 10 8 6 3 5 5 8 13 12 9 8 5 4 11 5 5 3 4 8 7 6 11 9 6 6 7 7 3 10 14 13 13 12 13
14 16 18 21 21 22 21 21 19 14 10 9 7 4 4 6 5 10 12 12 10 7 7 5 9 9 9 12 16 12 11 10 9 16 20 16 15 5 11 11 11 12 13 14 16
13 15 18 21 22 22 22 21 18 12 9 7 5 2 5 4 6 7 12 14 11 10 8 10 13 20 14 4 4 12 24 19 13 15 10 11 9 6 8 5 6 10 10 13 13
12 15 18 20 22 22 22 20 14 11 8 5 3 0 5 6 5 4 9 13 11 8 6 8 6 4 10 16 19 23 15 13 10 5 7 9 11 7 6 6 9 6 8 10 9
12 14 17 20 20 22 21 18 11 11 6 6 2 3 4 8 4 2 5 12 11 7 5 8 16 17 7 25 11 5 6 5 3 4 3 2 4 2 5 3 7 5 5 8 8
12 14 16 19 20 20 19 17 13 5 5 5 3 4 5 4 3 4 8 9 8 6 5 10 12 14 14 10 6 3 2 4 5 2 1 1 8 10 7 2 1 1 5 7 8
11 14 16 17 19 17 18 16 13 1 10 3 5 5 5 1 1 8 11 10 6 8 9 5 6 6 5 6 6 6 4 4 5 4 2 5 7 13 9 8 6 6 7 8 7
9 13 15 16 16 13 16 12 13 2 11 2 6 3 0 3 5 9 12 9 6 5 3 3 6 6 12 14 2 3 6 8 2 3 2 4 9 13 13 11 9 8 9 10 9
9 12 14 16 15 9 12 16 14 9 8 8 2 4 2 3 5 11 11 7 4 3 4 3 2 2 5 5 7 9 14 6 5 2 0 5 4 8 9 7 11 11 12 12 11
9 11 14 15 12 8 8 16 17 11 3 5 3 1 3 4 4 12 14 7 5 3 3 3 3 1 5 12 13 6 3 8 5 7 6 5 3 7 6 9 11 13 13 14 15
9 11 13 15 5 10 4 14 16 11 2 4 1 1 3 3 2 10 11 4 3 6 5 2 1 6 10 5 2 5 2 9 13 5 1 2 2 6 7 9 11 14 16 16 16
9 11 13 13 12 9 7 12 13 6 2 2 1 1 0 2 5 7 9 2 5 5 4 2 2 3 4 3 3 4 10 11 6 4 2 4 4 3 2 10 13 17 17 16 16
9 11 13 13 11 7 8 11 7 2 3 2 2 1 3 1 1 5 4 2 4 2 3 2 1 3 4 9 6 19 10 6 4 1 3 2 3 3 6 10 8 16 21 19 18
10 11 13 13 11 10 7 7 1 1 2 5 2 0 2 2 1 3 4 4 3 3 3 3 3 4 16 12 7 3 6 2 2 3 2 3 3 7 7 10 9 13 17 17 18
10 12 12 11 8 5 4 2 1 1 3 3 3 0 3 1 1 2 6 6 2 3 3 2 3 6 5 3 6 13 2 3 3 2 1 3 5 1 2 6 9 11 16 16 17
10 11 9 7 4 1 1 1 1 2 3 6 2 2 1 1 0 1 4 6 4 5 3 4 2 1 1 4 5 6 5 3 6 1 3 1 4 9 3 3 7 9 14 17 20
9 9 4 1 3 2 2 2 2 3 4 2 1 1 4 2 2 1 5 4 3 5 1 5 3 2 4 5 9 3 8 2 1 1 2 3 4 4 4 6 8 10 14 17 16
7 3 1 2 4 1 1 3 4 6 5 2 1 1 1 1 2 2 4 2 3 5 4 5 1 2 3 3 5 4 3 5 2 2 1 2 3 5 6 6 11 15 16 17 18
3 1 1 7 2 2 1 2 4 4 3 3 1 1 1 2 2 2 4 3 5 8 6 2 3 3 3 1 2 1 1 4 3 2 0 2 4 0 3 4 12 14 14 15 17
2 1 4 6 2 0 2 3 3 3 3 3 2 1 0 2 2 3 3 0 6 7 7 7 1 3 1 2 2 3 3 3 4 2 5 3 3 2 4 6 9 14 15 17 20
1 1 2 3 3 3 1 2 4 6 5 4 3 2 1 1 0 1 2 2 3 3 5 8 3 4 6 2 2 3 4 5 3 3 4 7 7 4 5 5 9 13 16 18 22
2 1 3 2 2 3 0 1 3 5 3 3 1 0 1 0 1 2 1 1 3 6 4 1 3 2 2 1 2 4 5 9 10 7 7 4 5 2 3 8 11 12 13 16 19
4 4 4 3 2 4 1 2 3 4 4 2 0 6 1 1 1 2 1 2 2 3 2 1 2 2 3 2 1 4 3 5 9 5 9 4 6 6 3 3 7 10 13 18 20
7 5 4 2 3 3 3 3 4 2 6 10 5 5 4 1 4 1 1 3 2 2 2 2 4 2 2 2 1 4 3 3 4 4 4 6 1 2 4 8 10 11 14 20 21
Wind_Direction
9 11 11 6 7 5 359 3 1 360 356 356 359 4 12 38 110 121 125 130 140 156 184 189 189 200 185 121 112 101 110 141 135 161 140 122 117 75 84 90 83 88 87 92 98
6 2 5 6 2 2 357 359 360 359 357 357 1 11 22 94 107 113 130 144 160 180 192 204 232 147 72 74 57 51 73 145 52 132 135 98 98 108 124 107 80 80 87 92 118
357 359 4 4 357 355 355 354 357 357 358 358 5 23 46 116 99 124 152 164 165 165 162 217 181 131 92 89 44 59 109 120 86 124 114 97 91 114 132 101 77 91 97 110 101
349 354 360 359 354 350 352 348 353 352 357 355 7 36 66 131 112 163 165 161 149 143 135 93 139 100 69 76 64 107 80 95 134 101 94 79 93 124 92 96 105 90 118 93 77
341 347 353 352 351 348 348 344 347 346 353 351 6 46 106 102 112 160 164 147 136 102 72 115 126 116 94 105 86 94 106 80 105 99 94 103 81 79 83 93 107 85 89 87 82
334 340 349 348 348 348 343 340 340 340 343 348 2 59 123 107 122 148 153 142 137 112 83 78 90 117 100 88 67 115 113 115 108 102 101 81 56 137 90 85 72 71 94 96 89
326 336 346 346 347 348 338 337 336 339 341 350 359 30 155 133 137 129 143 147 143 125 95 64 98 160 105 98 117 125 109 116 137 118 111 88 61 89 109 82 73 68 116 116 110
322 337 342 345 347 346 337 339 338 342 358 353 353 137 144 154 150 184 158 160 147 141 98 78 103 98 93 122 129 129 145 140 135 158 72 196 146 147 147 78 60 66 138 144 138
320 336 341 345 346 344 338 340 336 341 12 359 110 108 129 156 184 197 158 155 145 147 124 104 92 103 132 139 142 195 167 142 158 238 151 8 147 176 200 174 46 135 170 174 164
320 333 340 346 345 347 347 340 330 344 345 71 86 121 125 149 267 185 169 153 139 135 109 127 108 137 154 204 260 200 187 160 179 165 150 100 145 164 194 208 210 214 203 198 184
318 332 340 346 346 348 3 16 14 18 352 22 309 286 339 356 169 179 173 160 145 164 135 48 157 178 195 238 291 229 147 125 93 65 117 107 170 177 188 200 215 220 210 207 202
319 331 338 345 344 353 8 36 18 326 312 316 301 253 287 123 125 156 163 158 157 147 134 141 79 155 131 165 153 151 131 113 110 55 156 145 170 208 211 216 219 227 216 215 203
320 330 336 345 347 357 0 8 356 344 297 306 302 239 133 117 132 162 171 164 144 129 160 138 67 273 138 134 108 123 135 165 136 119 72 150 217 218 218 225 229 233 232 219 214
314 326 334 348 347 355 353 346 346 341 6 332 306 99 180 165 117 160 180 172 129 170 179 121 72 96 107 108 142 154 202 142 134 178 155 312 297 235 216 237 230 222 210 207 213
307 322 331 348 338 344 328 330 335 334 84 324 273 331 205 198 141 180 185 150 162 176 198 79 36 130 107 57 87 97 138 119 122 91 167 196 260 127 224 248 239 227 217 212 210
303 319 326 335 338 333 327 324 325 281 62 28 300 168 123 336 80 144 156 155 121 116 47 61 81 47 82 54 126 135 114 87 98 113 266 126 276 203 186 222 237 222 224 220 213
303 316 321 329 323 319 320 333 324 40 317 358 358 343 134 170 162 156 150 147 167 161 53 63 35 68 126 102 128 154 153 131 241 216 260 121 234 274 193 210 224 216 215 213 210
306 315 319 320 322 314 328 45 78 350 338 349 351 97 176 170 100 129 134 174 171 101 108 126 136 182 166 185 185 177 222 267 273 237 77 159 242 7 225 269 239 212 203 198 199
310 317 317 313 317 230 355 61 187 197 309 325 313 141 134 158 162 127 164 187 209 176 150 159 197 197 313 145 160 175 212 90 107 13 243 227 271 266 239 220 210 190 191 196 207
314 319 318 2 146 147 84 225 265 241 311 275 48 63 177 166 168 153 174 178 204 184 233 181 152 182 163 126 57 221 132 190 130 157 294 228 281 276 257 219 205 206 208 209 209
316 301 309 130 131 79 177 242 275 271 265 259 341 45 99 222 207 200 181 161 194 148 123 144 187 156 209 206 179 153 170 73 91 317 265 272 297 216 253 232 215 218 213 212 203
292 271 316 155 66 47 170 218 312 284 281 272 247 259 208 147 214 237 223 242 175 156 155 136 128 199 178 62 341 111 165 166 246 207 88 313 274 198 227 259 227 225 222 215 207
260 150 166 167 150 126 294 283 266 296 303 315 288 225 186 186 200 225 247 113 220 160 161 178 144 134 120 173 132 229 168 129 110 145 189 246 291 187 254 259 235 216 212 213 208
238 148 106 180 122 122 30 327 307 314 271 274 272 237 198 70 61 227 238 334 128 142 136 144 136 179 210 152 125 199 200 187 190 217 194 242 294 255 220 223 221 215 214 212 211
197 149 154 163 179 138 165 343 314 320 282 278 237 252 339 21 179 184 154 175 64 129 81 113 149 182 154 171 223 257 227 196 210 234 229 279 219 309 244 222 223 224 214 209 212
184 164 149 115 126 135 162 213 230 259 235 265 254 345 310 274 298 357 163 190 190 157 114 112 136 176 139 85 6 263 251 234 241 224 250 250 263 224 287 223 219 225 215 218 221
193 171 144 156 134 173 200 213 237 237 259 253 305 322 286 294 334 284 270 86 54 127 126 86 138 131 227 346 326 269 277 240 233 238 236 222 153 164 242 240 250 241 226 228 231